[[{"header":{"parameterUnit":"m.s-1","parameterCategory":1,"la1":30.2991,"la2":30.254,"lo1":-89.0895,"lo2":-89.0444,"dy":0.0017,"dx":0.0017,"nx":28,"ny":28,"refTime":"2023-07-22T03:00:00:Z","depth":0,"parameterNumber":2,"parameterNumberName":"U-component_of_WINDS"},"data":[0,0,0,0,0,0,0,0,0,0,0,0,0,0,0,0,0,0,0,0,0,0,0,0,0,0,0,0,0,0,0,0,0,0,0,0,0,0,0,0,0,0,0,0,0,0,0,0,0,0,0,0,0,0,0,0,0,0,1.7682,1.7684,0,1.7816,1.7818,1.7819,1.7861,1.786,1.7859,1.7859,1.7999,1.8003,1.8007,0,0,0,0,0,0,0,0,0,0,0,0,0,1.7464,1.7468,1.7682,1.7684,1.7686,1.7816,1.7818,1.782,1.7861,1.786,1.7859,1.7858,1.7997,1.8002,1.8007,0,0,0,0,0,0,0,0,0,0,0,0,0,1.7575,1.7469,1.7682,1.7722,1.7727,1.7816,1.7818,1.782,1.7861,1.786,1.7859,1.7858,1.7995,1.8002,1.8008,1.8068,0,0,1.8028,1.8031,0,0,0,0,0,0,0,0,1.7568,1.7583,1.7714,1.7719,1.7725,1.7821,1.7792,1.7903,1.7861,1.781,1.7859,1.7857,1.794,1.7951,1.7979,1.8075,1.8081,1.8029,1.8033,1.8035,1.8037,0,0,0,0,0,0,0,1.7561,1.7577,1.7735,1.7716,1.7723,1.7734,1.7748,1.7814,1.7879,1.7814,1.7818,1.7833,1.7943,1.7972,1.7982,1.8083,1.8029,1.8034,1.8038,1.8041,1.8235,1.8236,0,0,0,0,0,0,1.7546,1.7571,1.7731,1.7739,1.7643,1.7738,1.7755,1.7791,1.7879,1.7891,1.7833,1.7834,1.7962,1.7975,1.7987,1.8063,1.8035,1.8041,1.8045,1.8233,1.8235,1.8236,0,0,0,0,0,0,1.7541,1.756,1.7726,1.7656,1.7678,1.7743,1.7784,1.7794,1.7823,1.7893,1.7905,1.7851,1.7961,1.7978,1.8048,1.8068,1.8044,1.805,1.8232,1.8234,1.8235,1.8215,0,0,0,0,0,0,1.7535,1.7558,1.7581,1.7656,1.7681,1.7783,1.7785,1.7797,1.7834,1.7836,1.7913,1.7925,1.7962,1.8038,1.8054,1.8077,1.8055,1.823,1.8233,1.8235,1.8214,1.8215,1.8217,0,0,0,0,0,1.7527,1.757,1.7582,1.7601,1.7711,1.7784,1.7798,1.784,1.7836,1.7859,1.7904,1.7922,1.8063,1.8044,1.8063,1.8088,1.8229,1.8232,1.8235,1.8213,1.8215,1.8217,0,0,0,0,0,0,1.7497,1.7581,1.7595,1.7664,1.7716,1.7791,1.7822,1.7841,1.7896,1.7896,1.7946,1.7963,1.8029,1.8066,1.8043,1.8151,1.8147,1.8154,1.8124,1.8127,1.8128,1.8118,1.8061,0,0,0,0,0,1.7498,1.7549,1.762,1.7674,1.77,1.7756,1.779,1.7817,1.7874,1.7896,1.7946,1.8001,1.8058,1.8095,1.8151,1.8219,1.8237,1.8246,1.8248,1.8249,1.8254,1.8292,1.8297,1.8245,1.8245,1.8245,0,0,1.7502,1.7554,1.7583,1.767,1.7714,1.7766,1.7775,1.783,1.787,1.7905,1.7973,1.8011,1.8076,1.8145,1.8178,1.8178,1.8272,1.8252,1.8252,1.8257,1.8296,1.83,1.8305,1.8247,1.8247,1.8247,0,0,1.7534,1.7579,1.7629,1.7672,1.7738,1.7776,1.7787,1.7859,1.7886,1.7954,1.7982,1.803,1.8127,1.8172,1.8208,1.8257,1.8275,1.8274,1.8283,1.8319,1.8323,1.8327,1.8344,1.835,1.8279,1.8279,1.8279,0,1.753,1.761,1.7652,1.7706,1.7743,1.7776,1.7827,1.7868,1.7949,1.7974,1.7973,1.8095,1.8141,1.8221,1.8232,1.826,1.8276,1.8265,1.8319,1.8324,1.8328,1.8345,1.8351,1.8278,1.8278,1.8278,1.8278,0,1.7601,1.7656,1.7688,1.7765,1.7806,1.7858,1.7909,1.7945,1.7969,1.8006,1.8076,1.8132,1.82,1.8221,1.8245,1.8304,1.8302,1.8309,1.8306,1.8331,1.8348,1.8355,1.8277,1.8277,1.8278,1.8278,0,0,1.7619,1.7718,1.7729,1.7764,1.7839,1.7882,1.7936,1.8001,1.8032,1.8087,1.8133,1.8214,1.8221,1.8261,1.8291,1.8323,1.8358,1.8327,1.8329,1.833,1.8426,1.8419,1.8426,1.8371,1.8372,1.8373,1.842,0,1.7661,1.7757,1.7797,1.7875,1.7926,1.7958,1.8005,1.8056,1.8093,1.8142,1.8182,1.8238,1.8244,1.8268,1.8302,1.8346,1.8378,1.8344,1.8414,1.8416,1.8396,1.8435,1.8428,1.847,1.8427,1.8428,1.8429,0,1.7723,1.7777,1.7859,1.7928,1.7951,1.7992,1.8055,1.8101,1.816,1.8185,1.8229,1.8257,1.8315,1.8308,1.8388,1.8364,1.8396,1.8422,1.8425,1.8432,1.8424,1.8443,1.8484,1.849,1.844,1.8439,1.8438,0,1.7726,1.782,1.7882,1.7911,1.7992,1.802,1.8056,1.8114,1.815,1.8206,1.823,1.8292,1.8325,1.8373,1.8416,1.8408,1.8493,1.849,1.8514,1.8513,1.8531,1.8529,1.8576,1.8552,1.8551,1.8551,1.8551,0,1.7769,1.7818,1.7884,1.7922,1.7978,1.8024,1.8078,1.8116,1.8167,1.8213,1.8246,1.8288,1.8343,1.8393,1.8428,1.8489,1.8504,1.8526,1.8534,1.8522,1.852,1.8543,1.8541,1.8553,1.8553,1.8552,1.8552,0,1.7782,1.7829,1.7898,1.7969,1.7988,1.8026,1.8088,1.8126,1.8163,1.8221,1.8237,1.8297,1.8357,1.8405,1.8484,1.8508,1.8572,1.8582,1.8551,1.8555,1.8577,1.8574,1.8641,1.8652,1.862,1.862,1.862,0,1.7806,1.7844,1.7919,1.7952,1.7987,1.8039,1.8077,1.8123,1.8161,1.823,1.826,1.8322,1.8375,1.8469,1.852,1.858,1.8592,1.8611,1.8601,1.8588,1.8592,1.8588,1.8592,1.8612,1.8612,1.8612,1.8612,0,1.7843,1.7863,1.7916,1.7976,1.8019,1.8069,1.8119,1.8145,1.82,1.8241,1.8302,1.8343,1.8423,1.8484,1.855,1.8587,1.8609,1.8615,1.8624,1.8612,1.8593,1.8603,1.8553,1.8613,1.8613,1.8613,1.8613,1.8613,1.7862,1.7897,1.7955,1.8012,1.8055,1.8101,1.814,1.8183,1.8234,1.8302,1.8327,1.839,1.8448,1.8538,1.8576,1.8626,1.8628,1.8641,1.8644,1.8646,1.8645,1.8585,1.8638,1.8638,1.8639,1.8639,1.8639,0,1.79,1.7939,1.7991,1.806,1.8105,1.8121,1.8177,1.8214,1.8269,1.8321,1.8371,1.8441,1.8501,1.8556,1.8618,1.8648,1.8659,1.8662,1.8661,1.8669,1.864,1.8626,1.8652,1.8652,1.8652,1.8652,1.8652,1.8652,1.7925,1.7985,1.8013,1.8095,1.8134,1.8196,1.8227,1.827,1.8311,1.8388,1.8437,1.8472,1.8526,1.8592,1.8647,1.8662,1.8683,1.8684,1.8701,1.8673,1.8671,1.8669,1.8656,1.8688,1.8688,1.8726,1.8726,1.8726]},{"header":{"parameterUnit":"m.s-1","parameterCategory":1,"la1":30.2991,"la2":30.254,"lo1":-89.0895,"lo2":-89.0444,"dy":0.0017,"dx":0.0017,"nx":28,"ny":28,"refTime":"2023-07-22T03:00:00:Z","depth":0,"parameterNumber":3,"parameterNumberName":"V-component_of_WINDS"},"data":[0,0,0,0,0,0,0,0,0,0,0,0,0,0,0,0,0,0,0,0,0,0,0,0,0,0,0,0,0,0,0,0,0,0,0,0,0,0,0,0,0,0,0,0,0,0,0,0,0,0,0,0,0,0,0,0,0,0,4.587,4.587,0,4.5906,4.5907,4.5907,4.5927,4.5927,4.5927,4.5927,4.596,4.5961,4.5962,0,0,0,0,0,0,0,0,0,0,0,0,0,4.5811,4.5812,4.587,4.587,4.5871,4.5906,4.5907,4.5907,4.5927,4.5927,4.5927,4.5927,4.596,4.5961,4.5962,0,0,0,0,0,0,0,0,0,0,0,0,0,4.5841,4.5812,4.587,4.5885,4.5886,4.5906,4.5907,4.5907,4.5927,4.5927,4.5927,4.5927,4.596,4.5961,4.5962,4.5969,0,0,4.5966,4.5967,0,0,0,0,0,0,0,0,4.5839,4.5843,4.5882,4.5884,4.5886,4.5912,4.5898,4.5928,4.5926,4.5911,4.5927,4.5927,4.5944,4.5947,4.5953,4.597,4.5972,4.5966,4.5967,4.5968,4.5968,0,0,0,0,0,0,0,4.5837,4.5842,4.5884,4.5883,4.5885,4.5888,4.5892,4.5904,4.5927,4.5913,4.5914,4.5918,4.5945,4.5952,4.5954,4.5972,4.5966,4.5967,4.5968,4.5969,4.5993,4.5993,0,0,0,0,0,0,4.5833,4.584,4.5883,4.5885,4.5862,4.5889,4.5894,4.5903,4.5927,4.593,4.5918,4.5919,4.595,4.5953,4.5955,4.5963,4.5968,4.5969,4.597,4.5993,4.5993,4.5993,0,0,0,0,0,0,4.5832,4.5837,4.5882,4.5863,4.5869,4.589,4.5901,4.5904,4.5911,4.5931,4.5935,4.5922,4.595,4.5954,4.5965,4.5964,4.5969,4.5971,4.5993,4.5993,4.5993,4.5978,0,0,0,0,0,0,4.583,4.5836,4.5841,4.5863,4.587,4.5892,4.5901,4.5905,4.5914,4.5915,4.5935,4.5938,4.595,4.5963,4.5966,4.5966,4.5972,4.5993,4.5993,4.5993,4.5979,4.5977,4.5976,0,0,0,0,0,4.5828,4.5835,4.5841,4.5846,4.5876,4.5892,4.5896,4.5911,4.5914,4.5917,4.5929,4.5938,4.5964,4.5964,4.5968,4.5968,4.5994,4.5993,4.5993,4.5979,4.5978,4.5976,0,0,0,0,0,0,4.5812,4.5838,4.5845,4.586,4.5874,4.5896,4.5901,4.5909,4.5921,4.5922,4.5938,4.5942,4.5951,4.5961,4.5961,4.5973,4.5979,4.598,4.5967,4.5966,4.5965,4.5962,4.5973,0,0,0,0,0,4.581,4.5823,4.5845,4.5855,4.5862,4.588,4.5888,4.5897,4.5912,4.5917,4.5931,4.5943,4.5953,4.596,4.5972,4.598,4.5983,4.5982,4.598,4.5979,4.5979,4.5981,4.598,4.5992,4.5992,4.5992,0,0,4.5807,4.5823,4.583,4.5853,4.5864,4.5875,4.5885,4.5896,4.5903,4.5919,4.593,4.594,4.5954,4.5964,4.5968,4.5972,4.5977,4.5979,4.5978,4.5979,4.5981,4.598,4.5979,4.5992,4.5992,4.5992,0,0,4.5806,4.582,4.5829,4.584,4.5858,4.5869,4.5871,4.5891,4.5898,4.591,4.5921,4.5928,4.5947,4.5957,4.5964,4.5962,4.5969,4.5965,4.5959,4.5961,4.596,4.5959,4.5956,4.5955,4.5965,4.5965,4.5965,0,4.5799,4.5817,4.5833,4.5843,4.5851,4.5866,4.5873,4.5883,4.5903,4.5907,4.5911,4.5933,4.5944,4.5954,4.5953,4.5959,4.596,4.5963,4.5959,4.5958,4.5958,4.5955,4.5954,4.5964,4.5964,4.5964,4.5964,0,4.5806,4.5818,4.5823,4.5842,4.5851,4.586,4.5875,4.5881,4.5889,4.5899,4.5909,4.5923,4.5935,4.5939,4.5947,4.5949,4.595,4.5956,4.5962,4.5955,4.5953,4.5953,4.5963,4.5963,4.5964,4.5964,0,0,4.5798,4.5824,4.5825,4.5832,4.5851,4.586,4.5868,4.5881,4.5885,4.5897,4.5903,4.5917,4.5922,4.5929,4.5938,4.594,4.5935,4.5946,4.5946,4.5942,4.5935,4.593,4.5929,4.594,4.594,4.594,4.5934,0,4.5799,4.5816,4.5828,4.5839,4.5848,4.586,4.5867,4.5878,4.5887,4.5894,4.5903,4.5912,4.5919,4.5923,4.5926,4.5935,4.5934,4.5936,4.5944,4.5944,4.5939,4.5929,4.5924,4.5917,4.5933,4.5933,4.5933,0,4.5803,4.5814,4.5826,4.5841,4.5845,4.5851,4.5862,4.587,4.5881,4.5887,4.5894,4.5903,4.591,4.5914,4.5922,4.5923,4.5927,4.5931,4.5931,4.5932,4.5938,4.5928,4.5916,4.5914,4.5932,4.5932,4.5932,0,4.5793,4.5811,4.582,4.5826,4.5844,4.5848,4.5855,4.5867,4.5872,4.5881,4.5885,4.5894,4.5899,4.5905,4.5915,4.5918,4.5921,4.5927,4.5924,4.5924,4.5924,4.5924,4.5912,4.5928,4.5928,4.5928,4.5928,0,4.5792,4.5798,4.5816,4.5821,4.5827,4.584,4.5846,4.5854,4.5863,4.5869,4.5879,4.5884,4.5897,4.5902,4.591,4.5914,4.5916,4.592,4.5922,4.5918,4.5918,4.5921,4.5921,4.5928,4.5928,4.5928,4.5928,0,4.5783,4.5795,4.5805,4.5821,4.5824,4.5828,4.5841,4.5845,4.5853,4.5859,4.5862,4.5874,4.5881,4.5891,4.5901,4.5906,4.5908,4.5912,4.5904,4.5905,4.5901,4.5901,4.5889,4.5888,4.5906,4.5906,4.5906,0,4.5782,4.5787,4.5802,4.5806,4.5813,4.5821,4.5826,4.5838,4.5843,4.5854,4.5856,4.5864,4.587,4.588,4.5889,4.5896,4.5899,4.5894,4.59,4.5896,4.5897,4.5896,4.5895,4.5893,4.5893,4.5892,4.5892,0,4.5777,4.5781,4.579,4.5799,4.5805,4.5813,4.5821,4.5824,4.5837,4.5841,4.5848,4.5853,4.5862,4.5868,4.5876,4.5882,4.5888,4.589,4.589,4.5886,4.5881,4.5882,4.5899,4.5891,4.5891,4.5891,4.5891,4.5891,4.577,4.5774,4.5785,4.5792,4.5799,4.5806,4.581,4.5818,4.5824,4.5833,4.5839,4.5844,4.5852,4.5863,4.5868,4.5871,4.5874,4.5874,4.5874,4.5873,4.5871,4.5881,4.5873,4.5873,4.5873,4.5873,4.5873,0,4.5765,4.5771,4.5778,4.5788,4.5794,4.58,4.5808,4.5811,4.5817,4.5824,4.5829,4.5835,4.5841,4.5849,4.5855,4.5856,4.5858,4.5856,4.5856,4.5857,4.5869,4.5868,4.5854,4.5854,4.5854,4.5854,4.5854,4.5854,4.5762,4.5768,4.5773,4.5781,4.5788,4.5794,4.5797,4.5802,4.5808,4.5814,4.5819,4.5824,4.5831,4.5837,4.5841,4.5843,4.5844,4.5841,4.5844,4.5855,4.5856,4.5858,4.5857,4.5841,4.5841,4.5831,4.5831,4.5831]}]]